SCP
0 0 0 0 0 0 0 0 1 1 1 1 1 1 1 0 0 0 0 0 0 0 0 0 0 0 0 0 0 0 0 0 0 0 0 0 0 0 0 0 0 0 0
0 0 0 0 0 0 0 0 0 0 1 1 1 1 1 1 1 1 0 0 0 0 0 0 0 0 0 0 0 0 0 0 0 0 0 0 0 0 0 0 0 0 0
0 0 -0 0 0 0 0 0 0 0 0 0 1 1 1 1 1 1 1 1 0 0 0 0 0 0 0 0 0 0 0 0 0 0 0 0 0 0 0 0 0 0 0
0 0 0 0 0 0 0 0 0 0 0 0 0 1 1 1 1 1 1 1 1 0 0 0 0 0 0 0 0 0 0 0 0 0 0 0 0 0 0 0 0 0 0
0 0 0 0 0 0 0 0 0 0 0 0 0 0 1 1 1 1 1 1 0 0 0 0 0 0 0 0 0 0 0 0 0 0 0 0 0 0 0 0 0 0 0
0 0 0 0 0 0 0 0 0 0 0 0 0 0 0 1 1 1 1 1 1 0 0 0 0 0 0 0 0 0 0 0 0 0 0 0 0 0 0 0 0 0 0
0 0 0 0 0 0 0 0 0 0 0 0 0 0 0 0 1 1 1 1 1 1 1 0 0 0 0 0 0 0 0 0 0 0 0 0 0 0 0 0 0 0 0
0 0 0 0 0 0 0 0 0 0 0 0 0 0 0 0 1 1 2 2 1 1 1 1 1 1 0 0 0 0 0 0 0 0 0 0 0 0 0 0 0 0 0
0 0 0 0 0 0 0 0 0 0 0 0 0 0 0 0 0 1 1 1 1 1 1 1 1 0 1 1 1 0 0 0 0 0 0 0 0 0 0 0 0 0 0
0 0 0 0 0 0 0 0 0 0 0 0 0 0 0 0 0 1 1 1 1 1 1 1 1 1 1 1 0 0 0 0 0 0 0 0 0 0 0 0 0 0 0
0 0 0 0 0 0 0 0 0 0 0 0 0 0 0 0 0 1 1 1 1 1 1 1 1 1 1 1 1 0 0 0 0 0 0 0 0 0 0 0 0 0 0
0 0 0 0 0 0 0 0 0 0 0 0 0 0 0 0 0 0 0 1 1 1 1 1 1 1 1 0 0 0 0 0 0 0 0 0 0 0 0 0 0 0 0
0 0 0 0 0 0 0 0 0 0 0 0 0 0 0 0 0 0 0 0 1 1 1 1 1 1 0 0 0 0 0 0 0 0 0 0 0 0 0 0 0 0 0
0 0 0 0 0 0 0 0 0 0 0 0 0 0 0 0 0 0 0 0 0 1 1 1 1 0 0 0 0 0 0 0 0 0 0 0 0 0 0 0 0 0 0
0 0 0 0 0 0 0 0 0 0 0 0 0 0 0 0 0 0 0 0 0 0 1 0 0 0 0 0 0 0 0 0 0 0 0 0 0 0 0 0 0 0 0
0 0 0 0 0 0 0 0 0 0 0 0 0 0 0 0 0 0 0 0 0 0 0 0 0 0 0 0 0 0 0 0 0 0 0 0 0 0 0 0 0 0 0
0 0 0 0 0 0 0 0 0 0 0 0 0 0 0 0 0 0 0 0 0 0 0 0 0 0 0 0 0 0 0 0 0 0 0 0 0 0 0 0 0 0 0
0 0 0 0 0 0 0 0 0 0 0 0 0 0 0 0 0 0 0 0 -0 -0 0 0 0 0 0 0 0 0 0 0 0 0 0 0 0 0 0 0 0 0 0
0 0 0 0 0 0 0 0 0 0 0 0 0 0 0 0 0 0 0 0 -0 0 0 0 0 0 0 0 0 0 0 0 0 0 0 0 0 0 0 0 0 0 0
0 0 0 0 0 0 0 0 0 0 0 0 0 0 0 0 0 0 0 0 -0 0 0 0 0 0 0 0 0 0 0 0 0 0 0 0 0 0 0 0 0 0 0
0 0 0 0 0 0 0 0 0 0 0 0 0 0 0 0 0 0 0 0 0 0 0 -0 0 0 0 0 0 0 0 0 0 0 0 0 0 0 0 0 0 0 0
0 0 0 0 0 0 0 0 0 0 0 0 0 0 0 0 0 0 0 0 0 0 0 0 0 0 0 0 0 0 0 0 0 0 0 0 0 0 0 0 0 0 0
0 0 0 0 0 0 0 0 -0 -0 -0 -0 -0 0 0 0 0 0 0 0 0 0 0 0 0 0 0 0 0 0 0 0 0 0 0 0 0 0 0 0 0 0 0
0 0 0 0 0 0 0 0 -0 -0 -0 -0 0 0 0 0 0 0 0 0 0 0 0 0 0 0 0 0 0 0 0 0 0 0 0 0 0 0 0 0 0 0 0
0 0 0 0 0 0 -0 -0 -0 -0 -0 -0 0 0 0 0 0 0 0 0 0 0 0 0 0 0 0 0 0 0 0 0 0 0 0 0 0 0 0 0 0 0 0
0 -0 0 0 -0 0 -0 0 0 -0 -0 -0 0 0 0 0 0 0 0 0 0 0 0 0 0 0 0 0 0 0 0 0 0 0 0 0 0 0 0 0 0 0 0
Wind_Speed_500mb
48 43 48 50 52 48 46 41 36 35 33 31 35 43 45 46 51 49 45 57 60 49 49 56 61 57 52 49 40 41 42 47 44 35 30 29 29 25 20 19 18 14 13
44 32 34 43 55 51 46 44 44 44 43 38 38 41 44 46 49 47 50 45 58 62 53 57 56 65 57 53 51 55 55 54 49 45 37 24 31 34 30 30 26 20 20
19 16 26 33 33 28 28 36 42 46 46 45 47 51 51 55 54 52 54 55 54 67 59 60 63 63 67 64 61 60 64 59 56 49 35 16 22 31 39 38 34 30 26
8 10 20 27 21 20 21 19 20 24 29 38 48 55 58 64 61 61 59 51 57 61 73 66 69 69 70 72 68 61 68 63 60 55 51 43 27 19 19 43 41 34 30
15 10 18 19 20 21 19 16 13 13 18 23 29 37 60 69 73 69 69 55 58 61 62 75 69 73 72 73 71 66 72 68 62 58 56 53 48 38 26 29 44 41 35
21 16 11 6 9 5 5 8 10 11 15 23 30 34 37 50 69 71 72 63 64 66 66 64 73 81 85 73 65 66 72 70 63 58 56 53 56 51 40 30 40 42 39
10 9 6 2 6 12 15 16 18 18 18 21 25 28 31 34 36 46 64 64 68 64 62 67 67 75 72 72 64 61 75 72 63 62 60 54 54 51 50 43 37 49 40
6 11 13 16 19 18 19 24 28 33 37 34 34 34 31 32 37 41 50 63 65 66 62 61 70 72 74 74 80 70 78 73 66 67 59 54 53 47 46 46 43 41 42
21 29 35 36 33 34 29 29 33 35 37 43 48 49 45 48 47 45 51 54 58 66 69 68 69 67 77 88 88 80 82 77 68 69 60 57 53 47 41 40 44 49 46
27 45 48 51 53 43 40 34 35 37 40 49 54 58 64 58 53 56 58 59 58 67 77 77 77 71 71 86 93 86 84 78 69 70 63 61 58 55 50 41 44 43 44
68 71 56 59 43 39 36 33 37 43 53 57 59 57 61 53 40 42 50 63 63 70 79 78 77 75 77 88 100 93 82 75 71 66 67 64 60 61 57 46 45 45 45
83 70 66 47 41 33 31 35 39 49 56 51 55 64 60 52 51 46 48 53 65 71 76 77 75 79 83 94 109 100 84 75 68 68 73 66 63 64 58 47 42 42 39
37 34 28 40 33 30 31 37 43 44 43 48 56 61 53 50 50 54 55 56 65 71 79 78 78 77 93 94 101 95 86 71 70 78 77 71 69 67 58 48 43 40 33
22 22 25 27 32 33 36 39 44 43 48 52 57 60 56 54 55 55 59 60 68 68 76 76 77 76 97 95 101 99 83 69 76 85 79 68 74 64 58 48 42 37 34
24 27 30 34 37 37 39 43 49 56 54 51 49 53 55 60 58 61 58 56 63 64 73 67 79 83 88 84 92 84 88 71 82 79 66 70 68 57 53 50 44 39 37
18 23 26 28 35 41 46 54 64 63 56 57 57 59 68 76 65 61 62 57 58 65 69 64 82 95 91 99 90 77 80 86 77 74 71 71 62 57 51 41 35 32 36
45 42 47 55 58 62 65 73 72 68 64 63 65 63 73 75 64 57 62 54 58 56 69 67 90 95 98 109 98 88 92 79 76 78 76 74 66 62 54 47 38 35 31
57 69 74 68 72 73 74 77 70 65 66 66 73 76 82 74 62 57 56 47 53 60 64 69 96 103 96 119 105 100 86 73 82 77 75 74 71 65 59 53 47 44 38
71 74 81 88 90 76 67 63 62 56 67 74 84 92 81 66 57 53 46 38 51 52 56 67 71 94 101 94 99 92 78 81 79 73 70 72 70 64 56 51 52 52 46
77 82 82 82 80 68 49 52 63 71 83 96 98 84 75 60 56 51 45 34 49 49 48 50 75 90 97 94 99 86 80 86 78 75 71 69 64 62 56 50 55 53 49
90 85 78 76 75 63 59 66 83 99 105 98 84 75 63 59 50 47 43 30 36 39 48 36 38 70 89 91 91 89 83 89 86 81 79 71 63 59 53 48 46 45 52
76 80 74 78 71 76 89 101 106 103 88 80 74 66 60 56 46 45 42 33 35 47 49 47 47 59 85 71 84 98 90 89 90 89 82 72 63 57 51 46 46 51 54
72 70 71 85 101 102 90 87 88 76 73 70 69 64 58 52 46 40 41 36 44 67 56 50 43 53 84 91 81 84 81 81 86 78 76 70 64 58 53 52 57 58 55
69 78 94 95 95 90 82 83 78 72 71 72 70 66 60 48 43 39 36 39 54 65 68 58 51 51 69 100 96 85 79 77 76 65 71 72 69 62 63 61 61 57 52
77 76 79 81 85 82 80 76 71 64 66 64 61 56 49 43 43 38 33 41 49 71 70 70 68 54 70 97 97 95 92 77 80 85 84 81 77 73 71 67 64 57 50
80 80 81 81 80 76 73 71 62 58 57 57 52 50 52 46 42 36 31 35 43 57 65 57 57 47 86 95 101 95 93 83 83 88 92 87 81 83 76 74 69 62 53
Wind_Direction_500mb
270 251 253 239 241 243 241 240 242 248 251 251 253 262 267 271 273 278 281 273 264 253 254 247 243 236 232 234 241 228 218 214 207 206 203 212 219 233 249 262 255 268 282
278 237 244 246 244 246 241 235 241 245 249 259 266 268 277 281 284 286 278 278 260 255 250 246 245 236 236 238 235 224 214 216 220 213 205 204 222 231 237 243 242 258 263
232 244 258 230 229 227 222 233 245 252 251 256 255 261 269 270 273 282 281 285 276 257 255 244 245 244 239 240 237 232 226 224 217 223 222 196 222 229 235 238 238 247 255
285 225 191 179 180 212 213 215 223 229 240 256 262 265 267 267 274 284 289 287 285 272 255 256 241 242 242 239 238 238 228 232 229 225 225 232 241 212 217 228 233 239 244
74 152 192 211 217 195 189 191 209 231 250 257 273 277 266 265 269 273 277 279 283 278 264 256 251 240 240 237 238 238 229 231 236 236 233 230 237 246 224 217 219 225 228
70 79 89 130 171 177 221 240 245 251 269 280 282 281 287 281 271 268 272 271 278 280 271 260 256 246 236 225 231 236 232 232 236 242 242 247 244 239 226 223 218 218 214
52 40 58 111 229 249 260 265 276 295 307 297 273 284 291 293 291 283 271 263 271 278 267 261 252 259 247 224 231 228 237 235 238 242 242 246 243 253 241 238 226 205 208
312 312 302 302 295 287 284 281 282 290 291 289 278 279 283 288 288 290 282 270 272 276 268 261 254 259 245 228 235 237 238 238 240 243 243 244 242 243 239 239 228 196 202
276 288 292 283 283 288 288 288 296 294 291 295 289 290 290 285 283 288 288 278 268 267 271 262 258 256 251 241 241 227 233 235 236 239 241 240 236 231 231 230 232 227 202
288 292 273 272 273 270 272 278 290 300 303 301 297 291 289 290 283 280 285 277 267 263 264 266 261 256 245 237 224 227 230 231 231 235 239 233 233 232 229 231 232 233 235
294 302 290 264 245 246 258 276 289 299 303 301 299 306 294 287 279 282 283 277 266 259 262 264 259 254 245 227 227 224 226 225 226 231 235 231 231 230 227 231 234 228 225
301 294 288 242 228 242 262 277 292 294 298 300 303 305 297 286 272 278 280 275 269 260 264 260 259 251 240 232 222 221 219 221 224 232 231 226 227 225 230 233 225 220 222
290 292 234 215 231 252 272 287 296 298 300 302 301 303 297 281 270 272 279 274 269 262 264 258 253 244 237 228 214 222 219 214 224 232 227 222 222 222 227 223 216 214 212
242 222 216 239 260 265 273 285 295 292 292 297 299 295 296 289 280 272 274 278 268 258 261 258 248 240 223 222 225 213 208 205 224 232 229 224 222 224 224 216 212 209 202
253 263 260 260 261 267 282 292 294 293 293 294 295 301 301 294 281 274 280 290 274 257 259 251 241 232 222 224 201 198 196 212 225 225 219 218 220 225 223 213 208 206 198
353 334 322 296 286 285 287 292 295 288 285 286 296 301 304 303 286 271 278 291 282 257 254 249 238 227 225 211 200 204 202 211 226 215 208 210 213 213 209 208 210 209 204
322 312 303 295 286 285 285 288 294 289 274 282 289 293 303 305 293 269 270 285 286 264 249 246 228 221 204 203 202 203 201 215 216 206 203 204 204 204 201 196 196 193 196
306 304 302 295 289 283 288 285 287 281 273 280 288 295 301 302 293 274 269 279 283 264 247 244 219 213 209 201 203 193 201 219 208 204 204 206 201 202 199 195 191 193 192
298 298 297 294 293 289 287 283 281 272 277 283 293 300 301 296 289 276 272 282 276 255 252 231 228 203 206 202 196 197 209 213 202 202 205 205 201 199 198 193 186 185 186
295 298 298 298 293 289 280 272 276 281 285 290 295 297 295 287 281 273 270 286 261 244 241 238 205 209 208 202 197 202 210 202 196 199 202 200 201 198 195 194 193 190 188
295 294 295 294 288 287 282 284 285 287 289 290 290 289 289 281 276 262 263 272 246 229 225 224 259 209 211 201 207 206 211 198 193 196 193 193 195 195 192 195 196 195 175
287 290 292 293 287 286 291 288 286 288 289 287 285 278 280 279 265 255 256 259 227 217 208 208 233 227 226 207 208 210 200 195 192 192 191 188 188 190 185 183 183 180 170
298 294 287 291 292 292 289 288 288 288 287 285 277 274 275 272 256 244 249 245 217 201 204 208 218 218 219 204 195 195 194 190 192 194 189 184 180 176 171 173 176 175 171
288 282 287 287 285 288 287 286 288 288 285 282 275 270 270 269 240 233 244 232 213 208 213 217 207 217 215 191 185 193 189 187 189 192 186 180 172 171 167 169 176 175 173
292 292 289 286 284 286 287 287 287 284 280 275 270 269 264 251 235 230 232 229 226 216 216 221 221 200 210 190 190 187 188 188 185 184 179 174 172 171 172 175 177 176 174
294 290 287 286 285 287 289 288 284 282 276 268 263 259 257 235 230 233 231 224 224 219 224 234 219 231 193 198 192 188 188 186 179 182 178 178 178 178 176 178 180 182 181
Wind_Speed_850mb
48 43 48 50 52 48 46 41 36 35 33 31 35 43 45 46 51 49 45 57 60 49 49 56 61 57 52 49 40 41 42 47 44 35 30 29 29 25 20 19 18 14 13
44 32 34 43 55 51 46 44 44 44 43 38 38 41 44 46 49 47 50 45 58 62 53 57 56 65 57 53 51 55 55 54 49 45 37 24 31 34 30 30 26 20 20
19 16 26 33 33 28 28 36 42 46 46 45 47 51 51 55 54 52 54 55 54 67 59 60 63 63 67 64 61 60 64 59 56 49 35 16 22 31 39 38 34 30 26
8 10 20 27 21 20 21 19 20 24 29 38 48 55 58 64 61 61 59 51 57 61 73 66 69 69 70 72 68 61 68 63 60 55 51 43 27 19 19 43 41 34 30
15 10 18 19 20 21 19 16 13 13 18 23 29 37 60 69 73 69 69 55 58 61 62 75 69 73 72 73 71 66 72 68 62 58 56 53 48 38 26 29 44 41 35
21 16 11 6 9 5 5 8 10 11 15 23 30 34 37 50 69 71 72 63 64 66 66 64 73 81 85 73 65 66 72 70 63 58 56 53 56 51 40 30 40 42 39
10 9 6 2 6 12 15 16 18 18 18 21 25 28 31 34 36 46 64 64 68 64 62 67 67 75 72 72 64 61 75 72 63 62 60 54 54 51 50 43 37 49 40
6 11 13 16 19 18 19 24 28 33 37 34 34 34 31 32 37 41 50 63 65 66 62 61 70 72 74 74 80 70 78 73 66 67 59 54 53 47 46 46 43 41 42
21 29 35 36 33 34 29 29 33 35 37 43 48 49 45 48 47 45 51 54 58 66 69 68 69 67 77 88 88 80 82 77 68 69 60 57 53 47 41 40 44 49 46
27 45 48 51 53 43 40 34 35 37 40 49 54 58 64 58 53 56 58 59 58 67 77 77 77 71 71 86 93 86 84 78 69 70 63 61 58 55 50 41 44 43 44
68 71 56 59 43 39 36 33 37 43 53 57 59 57 61 53 40 42 50 63 63 70 79 78 77 75 77 88 100 93 82 75 71 66 67 64 60 61 57 46 45 45 45
83 70 66 47 41 33 31 35 39 49 56 51 55 64 60 52 51 46 48 53 65 71 76 77 75 79 83 94 109 100 84 75 68 68 73 66 63 64 58 47 42 42 39
37 34 28 40 33 30 31 37 43 44 43 48 56 61 53 50 50 54 55 56 65 71 79 78 78 77 93 94 101 95 86 71 70 78 77 71 69 67 58 48 43 40 33
22 22 25 27 32 33 36 39 44 43 48 52 57 60 56 54 55 55 59 60 68 68 76 76 77 76 97 95 101 99 83 69 76 85 79 68 74 64 58 48 42 37 34
24 27 30 34 37 37 39 43 49 56 54 51 49 53 55 60 58 61 58 56 63 64 73 67 79 83 88 84 92 84 88 71 82 79 66 70 68 57 53 50 44 39 37
18 23 26 28 35 41 46 54 64 63 56 57 57 59 68 76 65 61 62 57 58 65 69 64 82 95 91 99 90 77 80 86 77 74 71 71 62 57 51 41 35 32 36
45 42 47 55 58 62 65 73 72 68 64 63 65 63 73 75 64 57 62 54 58 56 69 67 90 95 98 109 98 88 92 79 76 78 76 74 66 62 54 47 38 35 31
57 69 74 68 72 73 74 77 70 65 66 66 73 76 82 74 62 57 56 47 53 60 64 69 96 103 96 119 105 100 86 73 82 77 75 74 71 65 59 53 47 44 38
71 74 81 88 90 76 67 63 62 56 67 74 84 92 81 66 57 53 46 38 51 52 56 67 71 94 101 94 99 92 78 81 79 73 70 72 70 64 56 51 52 52 46
77 82 82 82 80 68 49 52 63 71 83 96 98 84 75 60 56 51 45 34 49 49 48 50 75 90 97 94 99 86 80 86 78 75 71 69 64 62 56 50 55 53 49
90 85 78 76 75 63 59 66 83 99 105 98 84 75 63 59 50 47 43 30 36 39 48 36 38 70 89 91 91 89 83 89 86 81 79 71 63 59 53 48 46 45 52
76 80 74 78 71 76 89 101 106 103 88 80 74 66 60 56 46 45 42 33 35 47 49 47 47 59 85 71 84 98 90 89 90 89 82 72 63 57 51 46 46 51 54
72 70 71 85 101 102 90 87 88 76 73 70 69 64 58 52 46 40 41 36 44 67 56 50 43 53 84 91 81 84 81 81 86 78 76 70 64 58 53 52 57 58 55
69 78 94 95 95 90 82 83 78 72 71 72 70 66 60 48 43 39 36 39 54 65 68 58 51 51 69 100 96 85 79 77 76 65 71 72 69 62 63 61 61 57 52
77 76 79 81 85 82 80 76 71 64 66 64 61 56 49 43 43 38 33 41 49 71 70 70 68 54 70 97 97 95 92 77 80 85 84 81 77 73 71 67 64 57 50
80 80 81 81 80 76 73 71 62 58 57 57 52 50 52 46 42 36 31 35 43 57 65 57 57 47 86 95 101 95 93 83 83 88 92 87 81 83 76 74 69 62 53
Wind_Direction_850mb
270 251 253 239 241 243 241 240 242 248 251 251 253 262 267 271 273 278 281 273 264 253 254 247 243 236 232 234 241 228 218 214 207 206 203 212 219 233 249 262 255 268 282
278 237 244 246 244 246 241 235 241 245 249 259 266 268 277 281 284 286 278 278 260 255 250 246 245 236 236 238 235 224 214 216 220 213 205 204 222 231 237 243 242 258 263
232 244 258 230 229 227 222 233 245 252 251 256 255 261 269 270 273 282 281 285 276 257 255 244 245 244 239 240 237 232 226 224 217 223 222 196 222 229 235 238 238 247 255
285 225 191 179 180 212 213 215 223 229 240 256 262 265 267 267 274 284 289 287 285 272 255 256 241 242 242 239 238 238 228 232 229 225 225 232 241 212 217 228 233 239 244
74 152 192 211 217 195 189 191 209 231 250 257 273 277 266 265 269 273 277 279 283 278 264 256 251 240 240 237 238 238 229 231 236 236 233 230 237 246 224 217 219 225 228
70 79 89 130 171 177 221 240 245 251 269 280 282 281 287 281 271 268 272 271 278 280 271 260 256 246 236 225 231 236 232 232 236 242 242 247 244 239 226 223 218 218 214
52 40 58 111 229 249 260 265 276 295 307 297 273 284 291 293 291 283 271 263 271 278 267 261 252 259 247 224 231 228 237 235 238 242 242 246 243 253 241 238 226 205 208
312 312 302 302 295 287 284 281 282 290 291 289 278 279 283 288 288 290 282 270 272 276 268 261 254 259 245 228 235 237 238 238 240 243 243 244 242 243 239 239 228 196 202
276 288 292 283 283 288 288 288 296 294 291 295 289 290 290 285 283 288 288 278 268 267 271 262 258 256 251 241 241 227 233 235 236 239 241 240 236 231 231 230 232 227 202
288 292 273 272 273 270 272 278 290 300 303 301 297 291 289 290 283 280 285 277 267 263 264 266 261 256 245 237 224 227 230 231 231 235 239 233 233 232 229 231 232 233 235
294 302 290 264 245 246 258 276 289 299 303 301 299 306 294 287 279 282 283 277 266 259 262 264 259 254 245 227 227 224 226 225 226 231 235 231 231 230 227 231 234 228 225
301 294 288 242 228 242 262 277 292 294 298 300 303 305 297 286 272 278 280 275 269 260 264 260 259 251 240 232 222 221 219 221 224 232 231 226 227 225 230 233 225 220 222
290 292 234 215 231 252 272 287 296 298 300 302 301 303 297 281 270 272 279 274 269 262 264 258 253 244 237 228 214 222 219 214 224 232 227 222 222 222 227 223 216 214 212
242 222 216 239 260 265 273 285 295 292 292 297 299 295 296 289 280 272 274 278 268 258 261 258 248 240 223 222 225 213 208 205 224 232 229 224 222 224 224 216 212 209 202
253 263 260 260 261 267 282 292 294 293 293 294 295 301 301 294 281 274 280 290 274 257 259 251 241 232 222 224 201 198 196 212 225 225 219 218 220 225 223 213 208 206 198
353 334 322 296 286 285 287 292 295 288 285 286 296 301 304 303 286 271 278 291 282 257 254 249 238 227 225 211 200 204 202 211 226 215 208 210 213 213 209 208 210 209 204
322 312 303 295 286 285 285 288 294 289 274 282 289 293 303 305 293 269 270 285 286 264 249 246 228 221 204 203 202 203 201 215 216 206 203 204 204 204 201 196 196 193 196
306 304 302 295 289 283 288 285 287 281 273 280 288 295 301 302 293 274 269 279 283 264 247 244 219 213 209 201 203 193 201 219 208 204 204 206 201 202 199 195 191 193 192
298 298 297 294 293 289 287 283 281 272 277 283 293 300 301 296 289 276 272 282 276 255 252 231 228 203 206 202 196 197 209 213 202 202 205 205 201 199 198 193 186 185 186
295 298 298 298 293 289 280 272 276 281 285 290 295 297 295 287 281 273 270 286 261 244 241 238 205 209 208 202 197 202 210 202 196 199 202 200 201 198 195 194 193 190 188
295 294 295 294 288 287 282 284 285 287 289 290 290 289 289 281 276 262 263 272 246 229 225 224 259 209 211 201 207 206 211 198 193 196 193 193 195 195 192 195 196 195 175
287 290 292 293 287 286 291 288 286 288 289 287 285 278 280 279 265 255 256 259 227 217 208 208 233 227 226 207 208 210 200 195 192 192 191 188 188 190 185 183 183 180 170
298 294 287 291 292 292 289 288 288 288 287 285 277 274 275 272 256 244 249 245 217 201 204 208 218 218 219 204 195 195 194 190 192 194 189 184 180 176 171 173 176 175 171
288 282 287 287 285 288 287 286 288 288 285 282 275 270 270 269 240 233 244 232 213 208 213 217 207 217 215 191 185 193 189 187 189 192 186 180 172 171 167 169 176 175 173
292 292 289 286 284 286 287 287 287 284 280 275 270 269 264 251 235 230 232 229 226 216 216 221 221 200 210 190 190 187 188 188 185 184 179 174 172 171 172 175 177 176 174
294 290 287 286 285 287 289 288 284 282 276 268 263 259 257 235 230 233 231 224 224 219 224 234 219 231 193 198 192 188 188 186 179 182 178 178 178 178 176 178 180 182 181